K0PFX-8 Weather Reports


Display with metric or nautical units.
time (UTC)temp
F
wind
direction
speed
MPH
gust
MPH
rain 1hr
in
rain 24hr
in
rain mn
in
humidity
%
barometer
mb
20171212121225 31 274 12.0 18.0 0.00 0.00 0.00 74 1024.0
20171212120916 31 274 12.0 18.0 0.00 0.00 0.00 74 1024.0
20171212115625 31 294 13.0 10.0 0.00 0.00 0.00 74 1023.8
20171212115549 31 294 13.0 10.0 0.00 0.00 0.00 74 1023.8
20171212115410 31 294 13.0 10.0 0.00 0.00 0.00 74 1023.8
20171212114327 31 285 9.0 8.0 0.00 0.00 0.00 73 1023.5
20171212113911 31 285 9.0 8.0 0.00 0.00 0.00 73 1023.5
20171212112531 32 283 11.0 11.0 0.00 0.00 0.00 72 1023.1
20171212112404 32 283 11.0 11.0 0.00 0.00 0.00 72 1023.1
20171212111317 33 314 9.0 9.0 0.00 0.00 0.00 70 1022.9
20171212111222 33 314 9.0 9.0 0.00 0.00 0.00 70 1022.9
20171212110906 33 314 9.0 9.0 0.00 0.00 0.00 70 1022.9
20171212105711 33 318 7.0 11.0 0.00 0.00 0.00 70 1022.7
20171212105625 33 318 7.0 11.0 0.00 0.00 0.00 70 1022.7
20171212105405 33 318 7.0 11.0 0.00 0.00 0.00 70 1022.7
20171212104257 34 319 11.0 8.0 0.00 0.00 0.00 69 1022.5
20171212103907 34 319 11.0 8.0 0.00 0.00 0.00 69 1022.5
20171212102711 35 333 11.0 7.0 0.00 0.00 0.00 70 1022.3
20171212102625 35 333 11.0 7.0 0.00 0.00 0.00 70 1022.3
20171212102402 35 333 11.0 7.0 0.00 0.00 0.00 70 1022.3
20171212095711 36 316 8.0 10.0 0.00 0.00 0.00 68 1021.9
20171212095405 36 316 8.0 10.0 0.00 0.00 0.00 68 1021.9
20171212094308 37 304 8.0 7.0 0.00 0.00 0.00 67 1021.9
20171212093907 37 304 8.0 7.0 0.00 0.00 0.00 67 1021.9
20171212092627 37 321 10.0 8.0 0.00 0.00 0.00 68 1021.6
20171212092406 37 321 10.0 8.0 0.00 0.00 0.00 68 1021.6
20171212091447 38 301 7.0 10.0 0.00 0.00 0.00 71 1021.4
20171212091314 38 301 7.0 10.0 0.00 0.00 0.00 71 1021.4
20171212090908 38 301 7.0 10.0 0.00 0.00 0.00 71 1021.4
20171212085556 38 1 8.0 5.0 0.00 0.00 0.00 70 1021.2
20171212085404 38 1 8.0 5.0 0.00 0.00 0.00 70 1021.2
20171212084226 38 31 5.0 9.0 0.00 0.00 0.00 68 1021.2
20171212083906 38 31 5.0 9.0 0.00 0.00 0.00 68 1021.2
20171212082617 38 276 12.0 17.0 0.00 0.00 0.00 69 1020.9
20171212082400 38 276 12.0 17.0 0.00 0.00 0.00 69 1020.9
20171212081258 38 307 16.0 11.0 0.00 0.00 0.00 73 1020.6
20171212081222 38 307 16.0 11.0 0.00 0.00 0.00 73 1020.6
20171212081106 38 307 16.0 11.0 0.00 0.00 0.00 73 1020.6
20171212080902 38 307 16.0 11.0 0.00 0.00 0.00 73 1020.6
20171212075533 39 302 10.0 12.0 0.00 0.00 0.00 72 1020.2
20171212075500 39 302 10.0 12.0 0.00 0.00 0.00 72 1020.2
20171212075349 39 302 10.0 12.0 0.00 0.00 0.00 72 1020.2
20171212074255 40 281 13.0 11.0 0.00 0.00 0.00 77 1020.0
20171212073851 40 281 13.0 11.0 0.00 0.00 0.00 77 1020.0
20171212072704 40 311 8.0 10.0 0.00 0.00 0.00 79 1019.7
20171212072624 40 311 8.0 10.0 0.00 0.00 0.00 79 1019.7
20171212072345 40 311 8.0 10.0 0.00 0.00 0.00 79 1019.7
20171212071425 41 300 10.0 8.0 0.00 0.00 0.00 80 1019.5
20171212071249 41 300 10.0 8.0 0.00 0.00 0.00 80 1019.5
20171212070847 41 300 10.0 8.0 0.00 0.00 0.00 80 1019.5
20171212065613 41 322 10.0 7.0 0.00 0.00 0.00 81 1019.6
20171212065344 41 322 10.0 7.0 0.00 0.00 0.00 81 1019.6
20171212064244 41 273 14.0 18.0 0.00 0.00 0.00 81 1019.4
20171212063846 41 273 14.0 18.0 0.00 0.00 0.00 81 1019.4
20171212062633 42 309 9.0 13.0 0.00 0.00 0.00 81 1019.4
20171212062345 42 309 9.0 13.0 0.00 0.00 0.00 81 1019.4
20171212060847 42 332 10.0 11.0 0.00 0.00 0.00 79 1019.2
20171212055633 42 325 10.0 12.0 0.00 0.00 0.00 79 1019.1
20171212055602 42 325 10.0 12.0 0.00 0.00 0.00 79 1019.1
20171212055343 42 325 10.0 12.0 0.00 0.00 0.00 79 1019.1
20171212054222 42 308 16.0 13.0 0.00 0.00 0.00 77 1019.1
20171212053846 42 308 16.0 13.0 0.00 0.00 0.00 77 1019.1
20171212052344 43 291 11.0 13.0 0.00 0.00 0.00 75 1018.9
20171212051238 43 293 8.0 7.0 0.00 0.00 0.00 73 1018.7
20171212051203 43 293 8.0 7.0 0.00 0.00 0.00 73 1018.7
20171212050846 43 293 8.0 7.0 0.00 0.00 0.00 73 1018.7
20171212045704 43 319 16.0 17.0 0.00 0.00 0.00 77 1018.6
20171212045344 43 319 16.0 17.0 0.00 0.00 0.00 77 1018.6
20171212044327 44 283 11.0 13.0 0.00 0.00 0.00 77 1018.2
20171212043846 44 283 11.0 13.0 0.00 0.00 0.00 77 1018.2
20171212042345 44 288 9.0 12.0 0.00 0.00 0.00 75 1017.9
20171212041421 45 308 9.0 10.0 0.00 0.00 0.00 74 1017.4
20171212040847 45 308 9.0 10.0 0.00 0.00 0.00 74 1017.4
20171212035854 45 311 15.0 15.0 0.00 0.00 0.00 72 1017.3
20171212035343 45 311 15.0 15.0 0.00 0.00 0.00 72 1017.3
20171212034538 46 315 16.0 17.0 0.00 0.00 0.00 70 1017.0
20171212033845 46 315 16.0 17.0 0.00 0.00 0.00 70 1017.0
20171212033034 46 311 13.0 10.0 0.00 0.00 0.00 69 1016.8
20171212032914 46 311 13.0 10.0 0.00 0.00 0.00 69 1016.8
20171212032343 46 311 13.0 10.0 0.00 0.00 0.00 69 1016.8
20171212031210 47 291 12.0 13.0 0.00 0.00 0.00 69 1016.5
20171212031125 47 291 12.0 13.0 0.00 0.00 0.00 69 1016.5
20171212030845 47 291 12.0 13.0 0.00 0.00 0.00 69 1016.5
20171212025619 47 314 12.0 9.0 0.00 0.00 0.00 69 1016.3
20171212025339 47 314 12.0 9.0 0.00 0.00 0.00 69 1016.3
20171212024315 47 298 12.0 8.0 0.00 0.00 0.00 68 1016.0
20171212024229 47 298 12.0 8.0 0.00 0.00 0.00 68 1016.0
20171212023841 47 298 12.0 8.0 0.00 0.00 0.00 68 1016.0
20171212022659 47 302 13.0 11.0 0.00 0.00 0.00 67 1015.8
20171212022619 47 302 13.0 11.0 0.00 0.00 0.00 67 1015.8
20171212022337 47 302 13.0 11.0 0.00 0.00 0.00 67 1015.8
20171212021204 47 330 10.0 11.0 0.00 0.00 0.00 66 1015.7
20171212020839 47 330 10.0 11.0 0.00 0.00 0.00 66 1015.7
20171212015714 47 302 12.0 11.0 0.00 0.00 0.00 65 1015.5
20171212015334 47 302 12.0 11.0 0.00 0.00 0.00 65 1015.5
20171212014130 48 295 12.0 13.0 0.00 0.00 0.00 64 1015.1
20171212014056 48 295 12.0 13.0 0.00 0.00 0.00 64 1015.1
20171212013836 48 295 12.0 13.0 0.00 0.00 0.00 64 1015.1
20171212012622 48 266 12.0 13.0 0.00 0.00 0.00 62 1014.9
20171212012332 48 266 12.0 13.0 0.00 0.00 0.00 62 1014.9
20171212004137 49 278 15.0 15.0 0.00 0.00 0.00 58 1014.2
20171212003828 49 278 15.0 15.0 0.00 0.00 0.00 58 1014.2
20171212002601 49 316 17.0 15.0 0.00 0.00 0.00 56 1014.1
20171212002507 49 316 17.0 15.0 0.00 0.00 0.00 56 1014.1
20171212002326 49 316 17.0 15.0 0.00 0.00 0.00 56 1014.1
20171212001209 49 290 16.0 17.0 0.00 0.00 0.00 54 1013.9
20171212000828 49 290 16.0 17.0 0.00 0.00 0.00 54 1013.9
20171211235853 50 276 14.0 22.0 0.00 0.00 0.00 53 1013.7
20171211235325 50 276 14.0 22.0 0.00 0.00 0.00 53 1013.7
20171211234314 50 300 13.0 11.0 0.00 0.00 0.00 52 1013.5
20171211233827 50 300 13.0 11.0 0.00 0.00 0.00 52 1013.5
20171211232630 50 298 18.0 20.0 0.00 0.00 0.00 50 1013.2
20171211232322 50 298 18.0 20.0 0.00 0.00 0.00 50 1013.2
20171211231126 51 284 11.0 23.0 0.00 0.00 0.00 48 1012.9
20171211230824 51 284 11.0 23.0 0.00 0.00 0.00 48 1012.9
20171211225636 51 274 14.0 13.0 0.00 0.00 0.00 47 1012.8
20171211225514 51 274 14.0 13.0 0.00 0.00 0.00 47 1012.8
20171211225323 51 274 14.0 13.0 0.00 0.00 0.00 47 1012.8
20171211224149 52 240 15.0 19.0 0.00 0.00 0.00 46 1012.6
20171211223825 52 240 15.0 19.0 0.00 0.00 0.00 46 1012.6
20171211222452 52 276 20.0 21.0 0.00 0.00 0.00 44 1012.2
20171211222323 52 276 20.0 21.0 0.00 0.00 0.00 44 1012.2
20171211221155 52 316 13.0 16.0 0.00 0.00 0.00 45 1011.8
20171211220823 52 316 13.0 16.0 0.00 0.00 0.00 45 1011.8
20171211215539 53 307 16.0 16.0 0.00 0.00 0.00 44 1011.6
20171211215321 53 307 16.0 16.0 0.00 0.00 0.00 44 1011.6
20171211214109 53 283 17.0 14.0 0.00 0.00 0.00 42 1011.2
20171211213823 53 283 17.0 14.0 0.00 0.00 0.00 42 1011.2
20171211212709 53 274 19.0 19.0 0.00 0.00 0.00 41 1010.9
20171211212318 53 274 19.0 19.0 0.00 0.00 0.00 41 1010.9
20171211211417 54 281 15.0 15.0 0.00 0.00 0.00 40 1010.8
20171211211323 54 281 15.0 15.0 0.00 0.00 0.00 40 1010.8
20171211210820 54 281 15.0 15.0 0.00 0.00 0.00 40 1010.8
20171211205749 54 284 19.0 13.0 0.00 0.00 0.00 38 1010.3
20171211205709 54 284 19.0 13.0 0.00 0.00 0.00 38 1010.3
20171211205312 54 284 19.0 13.0 0.00 0.00 0.00 38 1010.3
20171211204114 55 290 21.0 22.0 0.00 0.00 0.00 37 1010.0
20171211203814 55 290 21.0 22.0 0.00 0.00 0.00 37 1010.0
20171211202809 55 295 17.0 16.0 0.00 0.00 0.00 36 1010.0
20171211202314 55 295 17.0 16.0 0.00 0.00 0.00 36 1010.0
20171211201556 55 252 21.0 24.0 0.00 0.00 0.00 34 1009.6
20171211200816 55 252 21.0 24.0 0.00 0.00 0.00 34 1009.6
20171211200041 55 294 15.0 15.0 0.00 0.00 0.00 34 1009.3
20171211195314 55 294 15.0 15.0 0.00 0.00 0.00 34 1009.3
20171211194347 55 248 15.0 22.0 0.00 0.00 0.00 33 1009.4
20171211193816 55 248 15.0 22.0 0.00 0.00 0.00 33 1009.4
20171211192728 55 257 16.0 18.0 0.00 0.00 0.00 32 1009.5
20171211192313 55 257 16.0 18.0 0.00 0.00 0.00 32 1009.5
20171211191456 55 281 19.0 17.0 0.00 0.00 0.00 31 1009.6
20171211190815 55 281 19.0 17.0 0.00 0.00 0.00 31 1009.6
20171211185538 55 290 10.0 14.0 0.00 0.00 0.00 32 1009.7
20171211185311 55 290 10.0 14.0 0.00 0.00 0.00 32 1009.7
20171211184455 56 259 22.0 30.0 0.00 0.00 0.00 30 1009.6
20171211183814 56 259 22.0 30.0 0.00 0.00 0.00 30 1009.6
20171211182955 56 271 16.0 15.0 0.00 0.00 0.00 31 1009.5
20171211182809 56 271 16.0 15.0 0.00 0.00 0.00 31 1009.5
20171211182313 56 271 16.0 15.0 0.00 0.00 0.00 31 1009.5
20171211180815 56 291 13.0 9.0 0.00 0.00 0.00 31 1009.9
20171211175823 56 271 9.0 10.0 0.00 0.00 0.00 33 1010.0
20171211175309 56 271 9.0 10.0 0.00 0.00 0.00 33 1010.0
20171211174535 56 242 11.0 15.0 0.00 0.00 0.00 35 1010.1
20171211173811 56 242 11.0 15.0 0.00 0.00 0.00 35 1010.1
20171211173512 54 260 13.0 20.0 0.00 0.00 0.00 35 1010.2
20171211172308 54 260 13.0 20.0 0.00 0.00 0.00 35 1010.2
20171211170810 53 233 12.0 15.0 0.00 0.00 0.00 37 1010.3
20171211165309 51 229 7.0 7.0 0.00 0.00 0.00 43 1010.8
20171211164724 49 221 12.0 15.0 0.00 0.00 0.00 45 1011.2
20171211163811 49 221 12.0 15.0 0.00 0.00 0.00 45 1011.2
20171211162954 47 249 9.0 9.0 0.00 0.00 0.00 50 1011.7
20171211162311 47 249 9.0 9.0 0.00 0.00 0.00 50 1011.7
20171211160813 46 238 9.0 8.0 0.00 0.00 0.00 53 1012.0
20171211155718 45 208 11.0 11.0 0.00 0.00 0.00 53 1012.2
20171211155313 45 208 11.0 11.0 0.00 0.00 0.00 53 1012.2
20171211154711 45 232 7.0 7.0 0.00 0.00 0.00 56 1012.7
20171211153815 45 232 7.0 7.0 0.00 0.00 0.00 56 1012.7
20171211152955 44 173 5.0 5.0 0.00 0.00 0.00 59 1013.1
20171211152312 44 173 5.0 5.0 0.00 0.00 0.00 59 1013.1
20171211151334 43 121 2.0 0.0 0.00 0.00 0.00 62 1013.4
20171211150815 43 121 2.0 0.0 0.00 0.00 0.00 62 1013.4
20171211145501 42 226 2.0 4.0 0.00 0.00 0.00 67 1013.8
20171211145315 42 226 2.0 4.0 0.00 0.00 0.00 67 1013.8
20171211144001 40 143 6.0 5.0 0.00 0.00 0.00 70 1014.4
20171211143817 40 143 6.0 5.0 0.00 0.00 0.00 70 1014.4
20171211142447 39 138 6.0 4.0 0.00 0.00 0.00 74 1014.9
20171211142316 39 138 6.0 4.0 0.00 0.00 0.00 74 1014.9
20171211140921 38 138 4.0 3.0 0.00 0.00 0.00 76 1015.5
20171211140818 38 138 4.0 3.0 0.00 0.00 0.00 76 1015.5
20171211135414 37 238 6.0 7.0 0.00 0.00 0.00 79 1015.8
20171211135309 37 238 6.0 7.0 0.00 0.00 0.00 79 1015.8
20171211133955 35 198 5.0 4.0 0.00 0.00 0.00 83 1016.0
20171211133917 35 198 5.0 4.0 0.00 0.00 0.00 83 1016.0
20171211133811 35 198 5.0 4.0 0.00 0.00 0.00 83 1016.0
20171211132435 34 169 6.0 6.0 0.00 0.00 0.00 87 1016.4
20171211132310 34 169 6.0 6.0 0.00 0.00 0.00 87 1016.4
20171211130908 34 170 0.0 0.0 0.00 0.00 0.00 88 1016.7
20171211130812 34 170 0.0 0.0 0.00 0.00 0.00 88 1016.7
20171211125444 33 225 2.0 2.0 0.00 0.00 0.00 89 1017.1
20171211125402 33 225 2.0 2.0 0.00 0.00 0.00 89 1017.1
20171211125304 33 225 2.0 2.0 0.00 0.00 0.00 89 1017.1
20171211123914 33 181 0.0 0.0 0.00 0.00 0.00 90 1017.2
20171211123806 33 181 0.0 0.0 0.00 0.00 0.00 90 1017.2
20171211122506 32 134 0.0 0.0 0.00 0.00 0.00 91 1017.6
20171211122305 32 134 0.0 0.0 0.00 0.00 0.00 91 1017.6